User: anonymous   Login
Location: STAR School
(35.3054°N, 111.2976°W)
Time: 21:53:57
(UTC-07:00)
Language:

EO-88 - Orbit

View from above orbital plane
View from above orbital plane
View from above satellite
View from above satellite

Ground track
Ground track

The orbit data is extracted from the following two-line orbital elements,

1 42017U 17008BX  19109.80730254  .00001444  00000-0  60132-4 0  9998
2 42017  97.4079 177.5086 0006975  34.7838 325.3855 15.25344446120794
Epoch (UTC): 19 April 2019 19:22:30
Eccentricity: 0.0006975
inclination: 97.4079°
perigee height: 485 km
apogee height: 494 km
right ascension of ascending node: 177.5086°
argument of perigee: 34.7838°
revolutions per day: 15.25344446
mean anomaly at epoch: 325.3855°
orbit number at epoch: 12079

The dashed part of the orbit path shows where the satellite is in the earth's shadow,  

DLR